This is the latest recevied weather packets stored in our database for station/object WW5JC. If no packets are shown the sender has not sent any weather packets the latest 10 day(s).
| Time | Temp. | Humidity | Pressure | Rain* | Wind** | Luminosity | Snow |
|---|---|---|---|---|---|---|---|
| 1788127207 | 36.67° C | 37% | 1015.2 hPa | 0 mm | - | 325 W/m² | - |
| 1788126902 | 36.67° C | 39% | 1015.2 hPa | 0 mm | - | 112 W/m² | - |
| 1788126596 | 36.67° C | 38% | 1015.1 hPa | 0 mm | - | 101 W/m² | - |
| 1788126291 | 36.67° C | 38% | 1015.1 hPa | 0 mm | - | 101 W/m² | - |
| 1788125985 | 37.22° C | 37% | 1015.2 hPa | 0 mm | - | 127 W/m² | - |
| 1788125681 | 37.78° C | 35% | 1015.4 hPa | 0 mm | - | 387 W/m² | - |
| 1788125377 | 37.78° C | 36% | 1015.3 hPa | 0 mm | - | 407 W/m² | - |
| 1788125072 | 37.78° C | 36% | 1015.2 hPa | 0 mm | - | 406 W/m² | - |
| 1788124766 | 37.78° C | 36% | 1015.1 hPa | 0 mm | - | 442 W/m² | - |
| 1788124461 | 37.22° C | 37% | 1015.2 hPa | 0 mm | - | 451 W/m² | - |
| 1788124156 | 37.78° C | 35% | 1015.4 hPa | 0 mm | - | 455 W/m² | - |
| 1788123855 | 37.22° C | 35% | 1015.5 hPa | 0 mm | - | 475 W/m² | - |
| 1788123553 | 37.78° C | 36% | 1015.7 hPa | 0 mm | - | 478 W/m² | - |
| 1788123262 | 37.78° C | 36% | 1015.7 hPa | 0 mm | - | 492 W/m² | - |
| 1788122948 | 37.78° C | 36% | 1015.8 hPa | 0 mm | - | 500 W/m² | - |
| 1788122647 | 37.78° C | 36% | 1015.7 hPa | 0 mm | - | 527 W/m² | - |
| 1788122342 | 38.33° C | 36% | 1015.8 hPa | 0 mm | - | 552 W/m² | - |
| 1788122039 | 37.78° C | 36% | 1016.1 hPa | 0 mm | - | 575 W/m² | - |
| 1788121737 | 37.22° C | 38% | 1016.1 hPa | 0 mm | - | 587 W/m² | - |
| 1788121433 | 36.67° C | 38% | 1016.3 hPa | 0 mm | - | 562 W/m² | - |
| 1788121128 | 36.67° C | 37% | 1016.3 hPa | 0 mm | - | 144 W/m² | - |
| 1788120822 | 37.78° C | 36% | 1016.3 hPa | 0 mm | - | 160 W/m² | - |
| 1788120517 | 38.33° C | 35% | 1016.3 hPa | 0 mm | - | 596 W/m² | - |
| 1788120217 | 37.78° C | 34% | 1016.6 hPa | 0 mm | - | 608 W/m² | - |
| 1788119913 | 37.78° C | 34% | 1016.6 hPa | 0 mm | - | 619 W/m² | - |
* Rain latest hour (hover to see other rain measurements)
** Current wind speed in m/s (hover to see current wind gust speed)